YAOGAN-40 01A

Satellite information

Favourite Embed

Satellite Type and Status

PAYLOADIN ORBIT

Key statistics

Satellite YAOGAN-40 01A at a glance.

Uptime

825

Days in orbit

Revolutions

≈ 14.1

Per day

Orbit

LEO

Low Earth Orbit

Inclination

86.0

Latest

Satellite identification and parameters

Extended collection of information and parameters for YAOGAN-40 01A.

Object identification

Identified? True

Debris? False

Object name: YAOGAN-40 01A

International designator: 2023-139A

Object number (NORAD): 57830

Object ID (CCSDS): 57830

Country: PEOPLES REPUBLIC OF CHINA (PRC)

Current information (Y/N): Y

RCS size: LARGE

Orbital parameters

Period: 101.954 minutes

Inclination: 85.9916 deg

SMA: 7229.305 km

Apoapsis: 852.759 km

Periapsis: 849.582 km

RAAN: 343.812 deg

Eccentricy: 0.00021974

Argument of periapsis: 87.6474 deg

Mean anomaly: 272.496 deg

Mean motion: 14.12400692 rev/day

Mean motion (dot): 0.00000231 rev/day2

B* drag term: 0.00011523647 1/REarth

Two-line elements (TLE)

Creation date: Dec. 12, 2025, 10:14 a.m.

Reference frame: TEME

Reference center: EARTH

Epoch: Dec. 12, 2025, 8:06 a.m. UTC

TLE line 0: 0 YAOGAN-40 01A

TLE line 1: 1 57830U 23139A 25346.33811916 .00000231 00000-0 11524-3 0 9995

TLE line 2: 2 57830 85.9916 343.8120 0002197 87.6474 272.4960 14.12400692116321

Live tracking on map

Real-time ground track for satellite YAOGAN-40 01A.

In-orbit conjunctions

There are no conjunctions computed for YAOGAN-40 01A, at the moment. Check back to stay up to date, as we update our databases every day.

Go to all conjunctions

Associated space launch

3 Chinese reconnaissance satellites of unknown purposes, officially reported as for "Electromagnetic environment probing" purposes.

YAOGAN-40 01A was lifted into orbit during the mission ‘Long March 6A | Yaogan 40’, on board a Long March 6A space rocket.

The launch took place on Sept. 10, 2023, 4:30 a.m. from Launch Complex 9A.

For more information about the launch, click the button.

Launch to space Long March 6A | Yaogan 40
Long March 6A | Yaogan 40

Agency: N/A

Status: Launch Successful

Launch date: Sept. 10, 2023, 4:30 a.m. UTC

Rocket: Long March 6A

Launch pad: Launch Complex 9A

Location: Taiyuan Satellite Launch Center, People's Republic of China

...

Latest news about this satellite

There are no fresh news available about this satellite. Check back as we update our databases every day.


Newsletter sign-up

Weekly statistics, charts and insights to help you stay on top of the space industry.